Location: Cold Norton
(51.6667°N, 0.6667°E)
Time: 15:39:36
(UTC+00:00)

ATLAS 2AS CENTAUR R/B - Pass Details

Date: 18 November 2025
Orbit: 1047 x 1163 km, 63.7° (Epoch: 12 December)

Event Time Altitude Azimuth Distance (km) Brightness Sun altitude
Rises 19:20:11 0° 315° (NW) 3,851 6.3 -30.2°
Reaches altitude 10° 19:22:50 10° 314° (NW) 2,883 5.6 -30.6°
Maximum altitude 19:29:38 79° 230° (SW) 1,071 2.6 -31.6°
Enters shadow 19:29:40 79° 224° (SW) 1,071 2.6 -31.6°
